Location: Ahstedt
(52.2048°N, 10.1060°E)
Time: 00:33:25
(UTC+00:00)

Meteor 1-24 Rocket - Pass Details

Date: 18 January 2026
Orbit: 790 x 925 km, 81.3° (Epoch: 18 February)

Event Time Altitude Azimuth Distance (km) Brightness Sun altitude
Rises 05:46:45 0° 345° (NNW) 3,575 6.7 -13.6°
Reaches altitude 10° 05:49:14 10° 344° (NNW) 2,634 6.0 -13.2°
Maximum altitude 05:55:16 75° 261° (W) 963 3.8 -12.3°
Drops below altitude 10° 06:01:13 10° 177° (S) 2,605 6.5 -11.5°
Sets 06:03:40 0° 176° (S) 3,532 7.3 -11.1°
